Date,TemperatureHighF,TemperatureAvgF,TemperatureLowF,DewpointHighF,DewpointAvgF,DewpointLowF,HumidityHigh,HumidityAvg,HumidityLow,PressureMaxIn,PressureMinIn,WindSpeedMaxMPH,WindSpeedAvgMPH,GustSpeedMaxMPH,PrecipitationSumIn
2013-1-1,51.8,49.8,45.0,29.9,5.4,-8.4,48,14,1,30.09,29.93,0,0,0,0.00
2013-1-2,55.4,50.6,46.3,-0.4,-4.0,-7.4,1,1,1,30.13,29.88,0,0,0,0.00
2013-1-3,46.4,42.2,33.7,-7.2,-10.6,-17.4,1,1,1,30.26,30.07,0,0,0,0.00
2013-1-4,52.6,38.4,26.6,30.8,2.1,-22.9,49,22,1,30.32,30.20,10,2,10,0.00
2013-1-5,50.0,37.3,23.2,29.3,2.0,-44.8,48,23,1,30.36,30.21,2,0,2,0.00
2013-1-6,58.0,45.3,38.5,24.2,-5.6,-13.3,28,5,1,30.22,30.03,0,0,0,0.00
2013-1-7,54.0,39.6,27.9,33.0,0.6,-33.7,47,18,1,30.40,30.19,0,0,0,0.00
2013-1-8,52.9,40.5,28.4,23.7,-8.2,-21.2,33,6,1,30.43,30.32,0,0,0,0.00
2013-1-9,67.3,55.4,43.6,9.0,-0.2,-9.5,8,1,1,30.43,30.35,0,0,0,0.00
2013-1-10,70.7,57.8,47.2,15.7,1.6,-6.7,13,1,1,30.47,30.34,0,0,0,0.00
2013-1-11,55.8,51.4,49.9,0.1,-3.4,-4.6,1,1,1,30.34,30.15,0,0,0,0.00
2013-1-12,74.7,61.4,51.1,14.4,4.4,-3.8,1,1,1,30.16,30.08,0,0,0,0.00
2013-1-13,74.5,63.0,58.1,14.3,5.4,-27.3,1,1,1,30.13,30.04,1,0,1,0.00
2013-1-14,69.3,64.0,59.2,10.5,6.4,2.7,1,1,1,30.12,30.04,13,2,13,0.00
2013-1-15,44.6,44.5,44.5,-8.6,-8.7,-8.8,1,1,1,30.06,30.03,9,3,9,0.00
2013-1-16,52.0,47.8,43.9,-2.9,-6.2,-9.2,1,1,1,30.05,29.95,8,1,8,0.00
2013-1-17,49.5,42.3,35.6,-4.8,-10.4,-15.7,1,1,1,30.17,29.73,16,6,16,0.00
2013-1-18,52.0,38.0,30.1,28.5,-10.6,-20.0,42,5,1,30.46,30.17,5,1,5,0.00
2013-1-19,54.5,39.6,27.9,31.1,-1.8,-21.7,42,15,1,30.46,30.15,8,3,8,0.00
2013-1-20,63.4,47.3,31.7,38.4,12.1,-18.6,47,25,1,30.15,30.01,11,2,11,0.00
2013-1-21,61.7,44.5,28.6,34.8,9.8,-21.0,47,24,1,30.06,29.91,15,2,15,0.00
2013-1-22,43.6,35.1,25.6,18.9,11.7,6.6,48,38,25,30.23,30.00,16,2,16,0.00
2013-1-23,49.3,33.6,21.1,25.8,13.0,-4.3,51,43,29,30.31,30.08,10,2,10,0.00
2013-1-24,50.8,41.9,25.9,21.1,8.5,-15.1,44,26,1,30.46,29.98,16,3,16,0.00
2013-1-25,29.2,26.3,22.5,10.5,-4.9,-23.8,46,27,1,30.48,30.07,0,0,0,0.00
2013-1-26,50.8,36.2,26.8,-4.0,-15.2,-22.5,1,1,1,30.32,30.06,0,0,0,0.00
2013-1-27,47.9,34.2,27.7,5.8,-16.6,-21.8,18,2,1,30.51,30.31,0,0,0,0.00
2013-1-28,52.7,44.0,38.3,-2.3,-9.1,-13.5,1,1,1,30.43,30.24,0,0,0,0.00
2013-1-29,70.9,63.2,45.5,11.7,5.8,-7.9,1,1,1,30.24,30.06,0,0,0,0.00
2013-1-30,70.0,64.2,49.3,11.0,6.5,-5.0,1,1,1,29.99,29.49,22,7,22,0.00
2013-1-31,50.8,43.8,35.6,27.9,11.9,-26.3,50,29,1,30.04,29.58,23,8,23,0.00
2013-2-1,41.0,36.3,24.1,24.2,13.6,6.0,52,40,25,30.33,29.94,19,3,19,0.00
2013-2-2,48.2,33.8,21.1,25.1,9.5,-15.1,57,39,1,30.35,30.02,0,0,0,0.00
2013-2-3,54.9,42.2,29.7,33.2,7.3,-20.2,50,24,1,30.02,29.85,0,0,0,0.00
2013-2-4,52.6,37.8,27.7,30.4,13.5,-20.2,54,39,1,30.12,29.99,0,0,0,0.00
2013-2-5,55.4,43.4,38.2,24.1,10.3,-31.6,49,28,1,29.98,29.92,0,0,0,0.00
2013-2-6,66.4,51.7,36.9,34.7,15.2,-14.7,49,23,1,30.19,29.97,0,0,0,0.00
2013-2-7,46.8,43.5,41.2,28.9,8.0,-11.3,53,25,1,30.23,29.98,0,0,0,0.00
2013-2-8,58.9,48.4,39.8,35.4,3.6,-11.1,46,13,1,30.12,29.88,0,0,0,0.00
2013-2-9,60.8,43.6,27.2,34.0,9.3,-22.2,49,25,1,30.31,30.09,0,0,0,0.00
2013-2-10,60.3,46.9,35.3,37.7,10.8,-15.9,50,24,1,30.40,30.15,0,0,0,0.00
2013-2-11,59.9,53.2,46.6,3.2,-1.9,-7.0,1,1,1,30.15,29.96,0,0,0,0.00
2013-2-12,63.0,50.9,40.1,39.3,6.1,-12.1,42,13,1,30.09,29.91,0,0,0,0.00
2013-2-13,51.8,46.5,35.3,-3.1,-7.2,-15.9,1,1,1,29.91,29.67,0,0,0,0.00
2013-2-14,55.6,40.5,28.6,25.0,-7.6,-21.2,32,7,1,30.06,29.88,0,0,0,0.00
2013-2-15,63.9,46.5,30.4,39.7,9.5,-19.6,47,22,1,30.08,29.91,0,0,0,0.00
2013-2-16,47.9,37.7,29.5,26.2,-6.0,-18.6,46,12,1,30.02,29.83,0,0,0,0.00
2013-2-17,45.0,33.3,24.1,18.5,11.6,2.4,51,41,25,30.24,30.01,0,0,0,0.00
2013-2-18,58.1,39.6,23.0,31.7,17.3,-23.9,53,42,2,30.34,30.18,0,0,0,0.00
2013-2-19,52.9,42.5,35.3,24.1,4.3,-16.1,51,21,1,30.19,29.87,0,0,0,0.00
2013-2-20,56.0,44.1,34.6,24.6,17.5,10.4,47,35,22,30.09,30.01,0,0,0,0.00
2013-2-21,61.6,43.7,28.1,30.4,19.9,-9.8,52,40,1,30.22,30.06,0,0,0,0.00
2013-2-22,43.6,40.6,39.2,-9.8,-11.7,-13.0,1,1,1,30.27,30.14,0,0,0,0.00
2013-2-23,47.9,43.3,39.6,-6.0,-9.6,-12.5,1,1,1,30.14,29.84,0,0,0,0.00
2013-2-24,65.2,49.9,42.1,38.2,9.3,-9.1,50,19,1,30.01,29.84,0,0,0,0.00
2013-2-25,47.9,42.8,36.2,29.3,19.7,-15.4,52,41,1,30.14,29.99,0,0,0,0.00
2013-2-26,43.6,38.0,34.2,-9.5,-13.8,-16.8,1,1,1,30.05,29.60,0,0,0,0.00
2013-2-27,58.1,48.0,37.8,27.0,2.7,-13.9,37,12,1,29.81,29.65,0,0,0,0.00
2013-2-28,54.0,43.0,33.3,32.1,11.5,-17.4,49,29,1,29.90,29.73,0,0,0,0.00
2013-3-1,51.7,38.9,24.3,30.2,5.9,-26.7,48,26,1,29.93,29.86,0,0,0,0.00
2013-3-2,47.7,40.0,32.2,24.2,0.1,-16.6,43,17,1,29.94,29.82,0,0,0,0.00
2013-3-3,45.7,32.6,22.7,22.2,1.5,-25.8,52,28,1,30.01,29.89,0,0,0,0.00
2013-3-4,55.3,38.7,24.1,25.1,15.9,2.3,51,40,24,30.14,30.00,0,0,0,0.00
2013-3-5,62.1,48.5,40.3,31.8,10.2,-9.6,52,22,1,30.06,29.63,0,0,0,0.00
2013-3-6,47.2,39.7,28.8,26.7,7.1,-21.0,46,27,1,30.11,29.66,0,0,0,0.00
2013-3-7,57.1,39.9,22.7,33.0,6.2,-38.9,49,25,1,30.25,30.11,0,0,0,0.00
2013-3-8,59.9,42.6,27.0,29.7,12.6,-22.4,50,31,1,30.31,30.17,0,0,0,0.00
2013-3-9,65.2,48.0,31.3,36.7,24.4,-14.6,52,40,14,30.35,30.21,0,0,0,0.00
2013-3-10,69.8,52.3,35.8,43.0,20.4,-15.5,50,30,1,30.29,30.15,0,0,0,0.00
2013-3-11,71.3,54.1,41.6,43.0,9.7,-11.0,48,15,1,30.17,29.84,0,0,0,0.00
2013-3-12,66.6,58.2,45.7,40.4,13.6,-1.3,47,15,1,30.00,29.76,0,0,0,0.00
2013-3-13,59.4,48.3,37.1,31.3,22.5,4.2,52,37,21,30.16,29.98,0,0,0,0.00
2013-3-14,55.4,40.1,26.6,26.1,19.0,11.6,56,44,21,30.29,30.15,0,0,0,0.00
2013-3-15,70.2,51.6,30.6,42.5,30.5,16.3,56,45,35,30.18,29.90,0,0,0,0.00
2013-3-16,78.1,66.7,55.8,51.1,43.7,36.8,51,44,35,29.92,29.76,0,0,0,0.00
2013-3-17,82.6,65.1,47.9,53.8,38.0,-6.2,53,39,1,30.07,29.87,0,0,0,0.00
2013-3-18,47.7,43.5,41.4,-6.2,-9.5,-11.1,1,1,1,30.11,29.85,0,0,0,0.00
2013-3-19,66.6,52.8,43.2,34.4,12.1,-9.8,41,18,1,30.05,29.84,0,0,0,0.00
2013-3-20,61.0,50.2,41.2,26.3,19.9,14.0,45,31,22,30.11,29.79,0,0,0,0.00
2013-3-21,48.1,39.5,29.7,27.2,14.8,6.3,52,37,24,29.95,29.81,0,0,0,0.00
2013-3-22,54.4,39.4,24.8,26.0,19.4,11.2,57,45,30,30.08,29.95,0,0,0,0.00
2013-3-23,53.5,45.1,40.1,27.6,4.2,-12.1,53,18,1,30.03,29.89,0,0,0,0.00
2013-3-24,47.0,44.3,41.4,-6.7,-8.9,-11.1,1,1,1,29.91,29.56,0,0,0,0.00
2013-3-25,49.3,42.3,35.5,25.4,7.8,-15.8,48,25,1,29.91,29.55,0,0,0,0.00
2013-3-26,50.4,38.8,27.5,28.4,8.4,-22.1,49,31,1,30.18,29.90,0,0,0,0.00
2013-3-27,55.6,42.4,27.5,29.3,12.5,-22.0,52,31,1,30.25,30.15,0,0,0,0.00
2013-3-28,60.5,44.6,29.0,28.5,15.4,-15.9,53,32,9,30.30,30.16,0,0,0,0.00
2013-3-29,65.5,47.7,29.2,36.4,17.6,-21.4,53,32,1,30.33,30.19,0,0,0,0.00
2013-3-30,70.4,56.3,44.6,44.2,16.9,-8.6,43,21,1,30.21,30.04,0,0,0,0.00
2013-3-31,73.4,59.0,48.8,25.6,3.8,-5.4,31,3,1,30.05,29.84,0,0,0,0.00
2013-4-1,75.4,62.8,52.4,43.5,23.6,-2.6,45,22,1,29.97,29.84,0,0,0,0.00
2013-4-2,69.8,56.8,45.4,41.2,31.2,24.1,47,38,28,30.14,29.97,0,0,0,0.00
2013-4-3,65.7,55.0,47.5,33.6,27.7,20.5,49,36,25,30.25,30.10,0,0,0,0.00
2013-4-4,51.1,44.8,38.5,31.8,13.0,-13.3,55,30,1,30.24,29.98,0,0,0,0.00
2013-4-5,68.8,51.4,36.4,39.3,6.6,-15.1,41,13,1,30.05,29.88,0,0,0,0.00
2013-4-6,73.6,56.3,38.9,44.4,18.3,-13.0,46,22,1,30.21,30.05,0,0,0,0.00
2013-4-7,74.9,58.8,38.7,49.0,21.3,-13.2,44,24,1,30.23,30.09,0,0,0,0.00
2013-4-8,79.9,64.9,50.8,51.9,19.2,-4.0,41,15,1,30.16,30.06,0,0,0,0.00
2013-4-9,85.3,69.0,52.0,56.8,23.7,-2.9,40,16,1,30.20,30.09,0,0,0,0.00
2013-4-10,86.8,72.3,58.3,57.2,24.1,2.0,39,14,1,30.12,29.96,0,0,0,0.00
2013-4-11,84.8,70.9,58.0,49.8,13.3,1.6,31,3,1,29.99,29.75,0,0,0,0.00
2013-4-12,80.1,70.6,58.0,50.6,24.9,-11.6,43,16,1,29.84,29.68,0,0,0,0.00
2013-4-13,78.3,61.8,43.0,48.0,26.7,-9.9,45,27,1,30.03,29.84,0,0,0,0.00
2013-4-14,77.2,61.5,45.0,50.6,22.7,-16.9,41,23,1,30.08,29.97,0,0,0,0.00
2013-4-15,72.4,63.2,55.4,12.8,5.8,-0.2,1,1,1,30.19,29.97,0,0,0,0.00
2013-4-16,82.8,68.6,60.1,22.5,9.9,3.4,12,1,1,30.28,30.18,0,0,0,0.00
2013-4-17,63.7,61.1,59.0,6.1,4.1,2.5,1,1,1,30.25,30.19,0,0,0,0.00
2013-5-4,59.0,56.3,53.8,50.7,49.5,48.2,89,78,68,30.07,29.96,4,2,4,0.33
2013-5-5,57.6,52.4,50.6,55.6,49.9,47.8,95,92,89,30.06,29.89,8,2,8,4.10
2013-5-6,71.6,60.9,51.7,58.9,52.2,44.2,94,75,52,29.99,29.88,11,3,11,0.06
2013-5-7,74.7,58.3,47.2,55.4,49.2,43.2,88,74,46,30.03,29.93,13,2,13,0.04
2013-5-8,78.8,65.0,49.1,60.6,53.9,46.1,91,69,48,30.10,29.99,14,2,14,0.00
2013-5-9,86.0,68.1,53.5,62.2,55.3,49.5,89,66,39,30.16,30.07,7,1,7,0.00
2013-5-10,85.0,69.5,54.4,66.3,58.7,50.9,91,71,46,30.16,30.03,12,3,12,0.00
2013-5-11,81.7,71.3,61.4,65.1,60.9,56.3,85,71,53,30.05,29.89,16,5,16,0.00
2013-5-12,76.7,64.6,51.3,58.8,45.5,29.4,83,54,23,30.12,29.94,10,3,10,0.00
2013-5-13,72.4,55.3,41.4,42.9,34.9,29.1,75,50,24,30.25,30.12,12,2,12,0.00
2013-5-14,77.2,65.2,43.7,50.3,43.2,31.0,69,46,33,30.32,30.15,12,4,12,0.00
2013-5-15,90.7,73.5,54.5,65.0,56.5,47.3,82,58,39,30.16,30.03,10,4,10,0.00
2013-5-16,87.3,73.6,62.5,65.3,58.1,52.2,77,59,41,30.12,30.03,8,2,8,0.00
2013-5-17,90.7,73.5,58.7,68.4,60.7,54.8,88,67,41,30.17,30.08,8,2,8,0.00
2013-5-18,75.6,68.4,64.1,68.4,62.5,57.4,90,82,70,30.23,30.13,7,1,7,0.48
2013-5-19,81.7,71.3,65.2,71.3,65.5,62.0,92,82,66,30.19,30.10,6,2,6,0.05
2013-5-20,87.5,74.0,65.0,71.5,66.2,62.0,92,78,54,30.21,30.08,8,2,8,0.01
2013-5-21,92.2,76.1,63.9,73.7,65.9,60.8,91,73,49,30.13,30.02,10,2,10,0.00
2013-5-22,88.4,73.7,61.9,73.1,65.0,58.7,90,75,54,30.09,29.95,12,3,12,0.70
2013-5-23,85.1,69.8,62.8,72.0,64.0,59.6,91,83,57,30.06,29.90,7,2,7,0.56
2013-5-24,74.3,63.6,52.2,59.6,50.5,39.8,80,65,32,30.28,29.97,8,2,8,0.00
2013-5-25,84.8,65.3,42.8,53.3,45.4,36.9,82,51,31,30.37,30.23,9,2,9,0.00
2013-5-26,86.6,66.0,53.5,57.3,49.2,42.7,74,56,35,30.36,30.24,7,1,7,0.00
2013-5-27,86.8,69.6,52.7,63.2,55.9,47.9,88,64,41,30.34,30.21,9,2,9,0.00
2013-5-28,88.2,73.3,58.7,66.7,61.1,54.5,88,68,45,30.31,30.22,11,3,11,0.00
2013-5-29,93.4,74.5,58.0,68.0,60.9,52.8,87,64,41,30.33,30.23,9,3,9,0.00
2013-5-30,88.6,74.6,61.6,67.7,61.9,56.9,87,67,45,30.36,30.24,8,2,8,0.00
2013-5-31,93.6,79.5,66.1,70.8,66.1,61.3,86,65,46,30.32,30.18,11,3,11,0.00
2013-6-1,91.3,76.9,66.6,70.7,65.4,61.9,87,69,48,30.22,30.10,11,3,11,0.00
2013-6-2,83.5,73.0,66.6,72.5,66.5,62.6,91,80,65,30.14,29.99,13,3,13,0.91
2013-6-3,93.4,74.1,65.7,75.4,67.4,63.0,93,81,52,30.04,29.94,9,1,9,0.00
2013-6-4,88.0,75.2,65.5,71.6,66.3,62.6,93,75,51,30.14,30.02,5,1,5,0.66
2013-6-5,83.0,72.5,67.9,72.6,66.7,63.4,91,82,69,30.17,30.05,9,1,9,0.52
2013-6-6,79.6,72.4,68.6,74.7,68.7,65.7,93,88,79,30.07,29.89,8,2,8,0.79
2013-6-7,86.6,71.7,66.8,75.8,67.4,62.4,94,87,66,29.93,29.75,10,2,10,0.77
2013-6-8,89.3,75.1,66.6,72.5,66.8,63.8,93,77,54,30.17,29.91,9,2,9,0.00
2013-6-9,90.7,74.1,65.2,76.6,67.8,61.8,91,82,55,30.23,30.13,11,2,11,0.43
2013-6-10,81.7,72.3,67.9,73.5,67.9,64.4,92,86,71,30.15,29.99,13,5,13,0.56
2013-6-11,102.1,79.2,67.0,73.4,68.0,64.1,93,71,40,30.09,30.02,8,2,8,0.00
2013-6-12,95.2,80.7,65.5,79.7,70.2,61.8,88,72,52,30.11,29.99,8,1,8,0.00
2013-6-13,94.1,80.7,72.0,74.0,68.9,61.8,86,69,46,29.99,29.79,16,4,16,0.00
2013-6-14,91.4,74.5,62.1,63.1,56.5,52.5,76,55,33,30.12,29.87,16,2,16,0.00
2013-6-15,92.5,74.6,59.6,66.0,59.3,53.3,83,61,40,30.23,30.12,9,2,9,0.00
2013-6-16,91.6,76.7,62.6,69.8,63.9,57.3,86,66,46,30.23,30.10,11,3,11,0.00
2013-6-17,88.9,76.1,67.7,77.1,68.7,63.8,89,78,63,30.12,30.04,13,3,13,1.24
2013-6-18,88.0,74.2,67.1,74.9,69.0,63.9,92,85,64,30.05,29.89,14,3,14,0.25
2013-6-19,94.5,79.1,67.9,71.9,66.8,62.4,89,67,48,30.19,30.05,8,1,8,0.00
2013-6-20,91.6,75.1,65.2,71.6,65.6,62.0,91,74,49,30.30,30.18,6,1,6,0.00
2013-6-21,92.7,74.9,63.5,69.0,63.5,59.9,90,70,45,30.35,30.25,6,1,6,0.00
2013-6-22,99.5,75.6,62.3,72.7,64.1,58.1,88,69,42,30.31,30.19,5,1,5,0.00
2013-6-23,92.2,76.4,65.3,74.3,67.7,62.0,91,76,53,30.30,30.19,12,1,12,0.28
2013-6-24,94.1,78.4,68.0,78.6,70.8,65.2,92,79,57,30.30,30.18,10,2,10,0.20
2013-6-25,94.1,77.6,68.9,75.3,69.0,64.5,91,76,49,30.23,30.11,12,3,12,0.03
2013-6-26,95.2,79.2,68.4,77.0,70.9,64.7,92,77,53,30.15,29.99,9,3,9,0.00
2013-6-27,92.5,79.3,72.4,78.4,72.3,68.3,91,80,58,30.04,29.83,11,4,11,0.09
2013-6-28,96.5,82.5,70.0,77.1,70.8,66.2,90,70,47,29.88,29.69,16,3,16,0.01
2013-6-29,93.1,79.4,69.3,75.3,69.1,64.4,90,72,50,29.81,29.72,11,3,11,0.00
2013-6-30,91.1,77.3,68.9,75.9,68.8,64.3,88,76,52,29.93,29.79,8,2,8,0.06
2013-7-1,86.0,76.0,68.8,75.8,69.4,65.7,91,81,66,30.04,29.90,8,2,8,0.32
2013-7-2,87.1,75.9,69.5,76.5,70.3,66.1,91,83,67,30.22,30.04,12,4,12,0.17
2013-7-3,86.6,74.9,67.1,76.1,70.0,64.1,91,85,67,30.30,30.19,11,3,11,0.16
2013-7-4,89.6,73.2,66.4,78.1,68.8,64.3,94,87,62,30.30,30.20,10,2,10,1.65
2013-7-5,88.6,75.6,70.0,77.7,71.0,67.2,93,86,65,30.32,30.25,8,2,8,0.80
2013-7-6,91.3,78.3,71.3,77.4,71.7,68.5,92,81,57,30.30,30.18,18,3,18,0.19
2013-7-7,92.0,79.3,72.5,79.0,72.7,67.8,92,81,62,30.26,30.15,10,3,10,0.04
2013-7-8,94.3,80.1,71.3,78.8,72.1,67.6,91,77,58,30.28,30.18,7,2,7,0.01
2013-7-9,95.0,80.9,68.0,79.3,72.1,64.8,91,76,59,30.25,30.14,11,2,11,0.01
2013-7-10,92.0,77.6,68.9,78.6,71.2,65.9,92,81,58,30.22,30.04,8,2,8,0.12
2013-7-11,85.5,78.0,71.1,78.1,72.7,67.7,92,84,73,30.06,29.96,7,2,7,0.14
2013-7-12,89.8,76.0,68.4,76.7,69.6,63.1,91,81,64,30.10,29.97,7,2,7,0.00
2013-7-13,84.1,73.9,67.7,73.7,68.2,64.3,91,83,67,30.19,30.09,7,1,7,0.01
2013-7-14,84.8,75.1,70.7,77.9,70.9,66.2,93,87,75,30.36,30.17,14,2,14,1.34
2013-7-15,89.1,77.2,68.4,76.2,70.9,66.6,94,82,59,30.41,30.32,7,1,7,0.03
2013-7-16,101.7,82.1,70.0,80.8,72.4,67.4,92,74,49,30.40,30.30,6,1,6,0.00
2013-7-17,95.9,81.2,71.6,78.8,72.2,67.9,89,76,55,30.34,30.19,13,1,13,0.00
2013-7-18,95.6,81.9,67.9,79.6,72.5,65.3,94,75,53,30.26,30.15,6,1,6,0.00
2013-7-19,93.8,80.2,70.4,79.0,72.2,67.1,91,78,58,30.20,30.07,8,2,8,0.00
2013-7-20,91.6,77.4,70.9,79.0,71.6,67.1,91,83,62,30.14,30.04,11,2,11,0.03
2013-7-21,95.2,76.9,69.3,79.1,71.3,66.5,93,84,58,30.10,30.02,9,2,9,0.90
2013-7-22,71.8,71.6,71.5,69.0,68.9,68.7,91,91,91,30.10,30.05,2,1,3,0.01
2013-7-23,92.9,79.8,70.0,74.8,70.8,67.7,93,76,52,29.98,29.87,13,3,13,0.01
2013-7-24,89.1,76.1,69.1,77.6,69.5,66.1,90,81,59,29.92,29.85,4,1,4,0.00
2013-7-25,90.5,76.1,67.5,74.2,67.8,64.2,91,77,56,30.11,29.93,6,1,6,0.07
2013-7-26,89.5,76.9,67.5,75.9,69.3,64.6,93,78,57,30.19,30.09,6,1,6,0.00
2013-7-27,89.1,75.9,71.3,80.1,71.2,67.2,91,86,72,30.11,29.99,11,2,11,0.53
2013-7-28,91.4,78.4,69.7,76.1,70.3,65.9,92,78,53,30.09,30.00,10,3,10,0.00
2013-7-29,90.4,77.5,65.9,73.5,67.4,62.8,91,73,52,30.23,30.09,5,1,5,0.00
2013-7-30,92.3,75.2,67.3,75.1,67.3,62.9,91,78,53,30.30,30.21,5,1,5,0.00
2013-7-31,85.5,76.0,71.1,76.7,70.9,67.8,91,84,71,30.24,30.07,7,1,7,0.05
2013-8-1,92.3,78.1,70.6,77.8,71.2,67.8,91,80,56,30.09,29.98,7,1,7,0.00
2013-8-2,93.1,79.2,68.4,76.5,70.2,66.0,93,76,52,30.12,30.01,6,1,6,0.00
2013-8-3,93.1,80.6,71.3,77.8,70.2,66.2,91,73,48,30.12,30.04,9,2,9,0.01
2013-8-4,91.4,79.9,68.8,73.4,68.7,64.3,88,70,50,30.12,30.02,6,1,6,0.00
2013-8-5,90.5,77.2,68.4,74.6,67.4,62.2,83,72,57,30.16,30.06,8,2,8,0.00
2013-8-6,84.6,74.2,68.0,76.1,68.9,65.0,91,84,71,30.15,30.05,8,2,8,1.46
2013-8-7,86.4,76.0,70.2,78.1,71.0,67.3,91,85,72,30.17,30.09,8,2,8,0.07
2013-8-8,90.4,79.3,71.6,78.3,72.4,68.8,92,80,61,30.16,30.09,8,2,8,0.00
2013-8-9,93.6,78.4,71.6,79.3,72.5,68.4,92,83,61,30.17,30.10,11,2,11,0.18
2013-8-10,93.6,79.3,70.2,80.5,72.8,66.7,94,81,55,30.23,30.14,10,2,10,0.57
2013-8-11,95.9,77.1,68.4,79.0,71.0,66.0,94,82,54,30.22,30.14,9,2,9,0.04
2013-8-12,96.5,79.2,70.0,79.8,72.2,67.4,92,80,54,30.17,30.05,9,1,9,0.29
2013-8-13,90.5,78.0,70.0,78.0,71.2,67.4,93,81,58,30.06,29.90,11,3,11,0.23
2013-8-14,84.4,73.7,66.8,70.7,66.9,61.7,92,80,61,30.15,29.96,5,1,5,0.00
2013-8-15,76.7,68.7,61.6,62.6,60.2,58.1,89,75,57,30.23,30.14,10,1,10,0.00
2013-8-16,74.9,66.0,61.6,65.5,60.3,57.2,88,82,68,30.24,30.16,5,1,5,0.07
2013-8-17,71.1,64.6,61.6,62.7,60.7,58.5,92,87,74,30.27,30.20,10,2,10,0.19
2013-8-18,82.4,71.2,64.1,72.5,66.3,61.7,94,85,70,30.30,30.21,4,1,4,0.14
2013-8-19,81.0,71.7,66.6,72.0,67.1,64.4,94,86,69,30.28,30.17,5,1,5,0.97
2013-8-20,84.4,73.8,67.3,74.3,68.5,65.1,93,84,66,30.28,30.19,3,0,3,0.00
2013-8-21,86.2,74.7,69.7,77.6,70.4,66.8,93,87,73,30.32,30.20,3,0,3,0.11
2013-8-22,91.8,77.0,68.9,77.6,70.2,65.7,94,81,56,30.25,30.11,8,2,8,0.01
2013-8-23,92.0,75.1,66.2,76.5,68.4,63.5,93,81,52,30.15,30.05,10,1,10,0.04
2013-8-24,83.5,71.4,63.2,67.3,62.9,57.8,93,76,52,30.37,30.15,9,2,9,0.00
2013-8-25,84.1,69.5,59.4,66.4,60.2,56.2,91,74,49,30.47,30.35,5,1,5,0.00
2013-8-26,85.3,70.8,59.4,68.9,62.0,56.8,93,75,49,30.41,30.20,7,1,7,0.01
2013-8-27,91.3,75.6,62.6,71.6,65.4,59.1,90,72,48,30.23,30.09,6,1,6,0.00
2013-8-28,94.0,79.1,67.1,76.1,69.5,63.8,90,74,49,30.12,30.02,6,1,6,0.00
2013-8-29,95.4,80.7,69.7,76.5,70.5,65.4,88,73,49,30.06,29.97,7,1,7,0.00
2013-8-30,88.7,78.7,71.8,73.1,70.0,66.1,87,75,57,30.15,30.03,5,1,5,0.00
2013-8-31,95.6,75.8,67.5,78.4,69.1,64.1,91,81,53,30.06,29.97,10,2,10,0.03
2013-9-1,91.4,77.1,67.3,78.0,70.0,64.5,93,80,59,30.01,29.90,13,3,13,0.01
2013-9-2,91.8,79.7,70.2,77.5,71.4,66.4,91,77,58,30.00,29.90,7,1,7,0.00
2013-9-3,90.0,77.2,68.9,71.4,67.1,64.1,91,73,47,30.06,29.92,8,1,8,0.01
2013-9-4,90.0,75.6,66.2,70.4,65.6,62.7,90,73,50,30.18,30.06,6,1,6,0.00
2013-9-5,89.6,76.0,66.2,74.0,65.9,61.8,92,73,43,30.22,30.13,7,1,7,0.00
2013-9-6,86.2,72.9,62.3,66.7,61.7,57.3,87,69,47,30.28,30.15,10,1,10,0.00
2013-9-7,87.8,73.1,61.9,70.4,63.6,59.0,90,74,51,30.23,30.07,10,1,10,0.00
2013-9-8,90.5,75.0,63.2,73.0,65.2,59.9,92,74,46,30.09,30.02,5,1,5,0.00
2013-9-9,92.2,77.0,67.3,73.0,67.1,63.4,91,74,46,30.23,30.09,10,1,10,0.00
2013-9-10,92.5,77.0,64.4,75.5,67.3,60.8,91,74,48,30.33,30.23,7,1,7,0.00
2013-9-11,93.1,77.6,64.6,73.2,66.6,61.6,92,71,46,30.31,30.17,9,2,9,0.00
2013-9-12,94.3,75.4,67.5,75.3,67.6,63.2,89,78,49,30.18,29.95,15,1,15,0.45
2013-9-13,84.2,74.8,64.6,68.2,60.8,52.1,90,64,36,29.99,29.89,9,2,9,0.15
2013-9-14,79.2,66.3,54.2,59.4,53.5,47.3,81,64,48,30.19,29.99,8,2,8,0.00
2013-9-15,81.7,67.6,57.2,66.4,59.8,53.6,89,77,56,30.29,30.19,6,1,6,0.00
2013-9-16,86.8,74.0,62.8,72.3,63.3,59.6,90,71,44,30.23,30.13,8,1,8,0.00
2013-9-17,75.2,68.7,64.4,61.3,58.3,56.6,77,70,57,30.38,30.23,8,2,8,0.00
2013-9-18,79.6,67.8,60.1,61.4,57.0,53.1,79,69,52,30.37,30.24,5,1,5,0.00
2013-9-19,85.5,71.2,58.7,66.7,60.9,54.9,89,72,51,30.27,30.16,6,1,6,0.00
2013-9-20,91.1,73.9,61.2,70.4,63.1,57.5,90,71,47,30.17,30.00,8,2,8,0.00
2013-9-21,76.1,69.0,63.7,69.9,64.5,59.9,92,86,79,30.02,29.75,9,2,9,2.87
2013-9-22,78.8,66.4,56.0,61.9,57.3,52.7,90,75,46,29.99,29.81,6,1,6,0.00
2013-9-23,80.1,65.9,58.7,64.3,57.1,53.6,87,74,53,30.14,29.99,6,1,6,0.00
2013-9-24,82.1,67.7,55.8,66.1,58.9,50.9,85,74,54,30.15,30.02,7,1,7,0.00
2013-9-25,71.3,65.3,61.7,62.9,57.8,54.2,81,77,74,30.03,29.95,4,1,4,0.07
2013-9-26,74.5,62.2,56.7,63.2,53.3,48.1,75,73,64,30.06,29.96,6,1,6,0.07
2013-9-27,77.0,63.6,53.6,59.5,51.8,44.1,73,66,49,30.24,30.12,7,2,7,0.01
2013-9-28,73.4,62.2,53.8,57.8,50.5,43.5,72,66,52,30.33,30.23,5,1,5,0.00
2013-9-29,76.9,64.5,52.2,60.5,52.1,41.9,70,64,53,30.25,30.11,5,1,5,0.00
2013-9-30,78.7,65.3,54.5,61.1,51.8,42.6,68,62,48,30.18,30.08,6,1,6,0.00
2013-10-1,83.5,67.1,54.0,64.5,52.1,40.7,65,59,46,30.23,30.12,8,1,8,0.00
2013-10-2,85.3,68.9,57.4,65.3,52.9,41.4,64,57,48,30.24,30.15,5,1,5,0.00
2013-10-3,85.3,70.5,58.3,67.5,51.9,36.3,63,52,37,30.22,30.15,8,1,8,0.00
2013-10-4,88.9,70.5,58.7,69.6,48.0,24.1,60,46,25,30.24,30.16,6,1,6,0.00
2013-10-5,88.2,72.3,61.9,70.0,42.7,7.5,58,38,12,30.22,30.11,6,1,6,0.00
2013-10-6,86.0,71.5,59.9,68.1,35.4,3.2,57,31,1,30.13,29.96,9,2,9,0.00
2013-10-7,79.4,70.9,60.8,54.7,23.6,8.4,56,16,1,30.08,29.88,11,3,11,1.11
2013-10-8,72.7,63.9,57.2,54.8,48.1,36.0,62,56,39,30.27,30.07,10,3,10,0.00
2013-10-9,73.3,60.5,50.8,48.3,43.1,32.0,63,54,37,30.29,30.18,13,2,13,0.00
2013-10-10,77.8,67.3,49.5,58.2,49.1,27.7,58,52,42,30.21,30.05,7,1,7,0.00
2013-10-11,81.0,67.1,54.5,60.2,41.1,3.0,58,41,12,30.10,30.00,7,1,7,0.00
2013-10-12,80.8,67.2,56.0,62.1,31.1,0.2,56,29,1,30.17,30.05,4,1,4,0.00
2013-10-13,76.9,67.7,63.5,56.6,22.1,6.0,52,17,1,30.28,30.17,8,1,8,0.02
2013-10-14,73.1,66.3,62.8,50.3,16.0,5.5,46,11,1,30.31,30.21,9,2,9,0.00
2013-10-15,74.5,64.0,58.1,56.3,19.7,1.8,55,18,1,30.27,30.13,7,1,7,0.00
2013-10-16,76.5,64.1,54.4,56.1,17.1,-1.1,51,15,1,30.15,30.04,6,1,6,0.00
2013-10-17,72.4,65.1,59.9,17.7,7.3,3.1,13,1,1,30.05,29.94,10,2,10,0.21
2013-10-18,65.0,60.3,57.1,7.1,3.5,1.0,1,1,1,30.02,29.97,2,1,2,0.01
2013-10-19,65.3,60.3,50.9,20.6,4.0,-4.0,19,3,1,30.01,29.92,9,2,9,0.02
2013-10-20,68.4,54.4,42.7,51.0,15.6,-10.3,56,23,1,30.15,30.00,6,1,6,0.01
2013-10-21,71.6,55.9,44.3,53.9,14.8,-8.9,55,20,1,30.22,30.07,8,2,8,0.00
2013-10-22,72.7,60.8,55.1,54.4,16.1,-0.4,54,16,1,30.09,29.87,8,2,8,0.00
2013-10-23,68.8,54.0,39.6,46.2,18.8,-16.5,61,27,1,30.12,29.80,15,3,15,0.00
2013-10-24,63.5,46.5,32.9,43.4,25.1,-8.8,61,45,14,30.24,30.11,10,1,10,0.00
2013-10-25,55.1,43.2,34.2,31.7,16.7,-12.5,61,38,10,30.43,30.22,10,1,10,0.00
2013-10-26,58.9,43.2,29.3,38.2,23.0,-7.1,59,46,18,30.42,30.14,14,2,14,0.00
2013-10-27,70.0,54.1,39.1,51.0,31.2,-10.4,57,44,7,30.20,30.10,10,2,10,0.00
2013-10-28,74.5,58.7,48.2,56.3,16.3,-5.8,54,20,1,30.32,30.17,7,1,7,0.02
2013-10-29,74.7,59.9,50.6,55.9,18.4,-4.0,54,21,1,30.39,30.30,6,1,6,0.00
2013-10-30,79.6,64.0,53.6,59.9,24.4,-1.8,52,23,1,30.35,30.23,11,2,11,0.00
2013-10-31,73.8,63.3,54.4,48.7,13.2,-1.1,42,10,1,30.25,29.97,9,2,10,0.00
2013-11-1,67.9,64.8,57.6,18.4,7.4,1.4,16,2,1,29.97,29.76,17,5,17,0.15
2013-11-2,72.2,56.0,44.6,50.7,21.7,-7.2,56,29,1,30.07,29.81,13,2,13,0.03
2013-11-3,63.7,48.9,38.5,43.7,20.4,-13.3,57,36,1,30.42,30.06,7,1,7,0.00
2013-11-4,59.9,43.9,37.6,40.8,15.7,-7.9,57,34,14,30.56,30.41,6,1,6,0.00
2013-11-5,58.3,45.3,36.2,42.7,22.2,-3.3,59,43,1,30.59,30.47,8,1,8,0.00
2013-11-6,71.5,58.6,51.5,53.9,17.3,-3.3,54,20,1,30.47,30.20,5,1,5,0.00
2013-11-7,71.1,52.5,42.1,51.6,24.5,-4.5,59,38,1,30.21,30.05,9,2,9,0.00
2013-11-8,59.8,42.7,34.4,36.0,27.3,18.8,61,55,32,30.37,30.21,5,1,5,0.00
2013-11-9,61.6,42.3,32.6,37.6,27.2,10.3,61,55,38,30.42,30.28,7,1,7,0.00
2013-11-10,72.9,55.5,40.5,42.8,31.8,11.4,58,42,25,30.29,30.19,8,2,8,0.00
2013-11-11,63.0,46.9,35.6,34.7,29.4,23.0,61,52,30,30.41,30.23,7,1,7,0.00
2013-11-12,65.7,45.7,29.9,39.3,27.5,15.5,60,50,31,30.51,30.13,18,5,18,0.00
2013-11-13,46.4,33.0,22.7,19.1,16.1,12.6,65,50,33,30.59,30.49,5,0,5,0.00
2013-11-14,58.9,37.8,23.4,30.6,20.0,12.6,65,51,27,30.52,30.36,10,2,10,0.00
2013-11-15,60.3,45.7,30.6,40.0,22.7,-7.6,63,45,1,30.39,30.25,6,1,6,0.00
2013-11-16,66.1,51.3,46.8,41.8,-1.5,-6.9,42,4,1,30.34,30.25,3,1,3,0.00
2013-11-17,68.6,60.0,55.1,28.0,4.2,-0.4,22,3,1,30.27,29.99,6,1,6,0.00
2013-11-18,75.1,60.8,44.3,55.1,29.8,0.5,57,34,1,30.07,29.93,7,2,7,0.11
2013-11-19,58.0,46.0,35.6,32.8,27.5,20.1,59,49,31,30.31,30.07,8,1,8,0.00
2013-11-20,54.0,43.5,33.8,33.9,28.3,17.5,60,55,44,30.50,30.30,11,2,11,0.00
2013-11-21,54.4,48.7,44.6,39.3,23.6,-18.1,59,42,1,30.53,30.42,9,3,9,0.07
2013-11-22,63.7,56.2,49.5,6.1,0.3,-4.8,1,1,1,30.46,30.19,9,2,9,0.00
2013-11-23,62.3,54.8,40.9,44.6,18.1,-1.1,58,26,1,30.28,30.14,7,2,7,0.02
2013-11-24,43.6,35.0,24.8,21.3,13.2,6.3,53,42,23,30.56,30.27,14,3,14,0.00
2013-11-25,44.8,33.5,22.0,21.4,15.2,10.1,66,48,32,30.60,30.37,7,1,7,0.00
2013-11-26,44.8,37.9,32.8,23.7,-8.4,-18.0,61,9,1,30.37,29.69,10,3,10,3.24
2013-11-27,46.3,38.6,24.5,29.8,3.6,-15.1,62,26,1,30.26,29.60,13,3,13,0.20
2013-11-28,46.8,31.5,20.3,29.8,16.0,-6.4,61,53,25,30.52,30.26,6,1,6,0.00
2013-11-29,55.1,37.9,25.6,33.2,16.1,-31.8,60,43,5,30.63,30.50,7,1,7,0.00
2013-11-30,48.2,36.6,29.2,27.1,20.8,12.1,60,53,39,30.68,30.41,9,2,9,0.00
2013-12-1,56.9,41.1,30.6,39.1,22.9,-7.3,60,49,16,30.41,30.08,9,1,9,0.00
2013-12-2,61.4,45.6,31.7,44.1,14.6,-18.6,57,32,1,30.08,29.88,7,1,7,0.00
2013-12-3,62.5,53.5,46.4,36.2,9.3,-7.2,44,15,1,30.03,29.93,8,1,8,0.10
2013-12-4,63.2,57.7,53.6,5.8,1.6,-1.6,1,1,1,30.15,30.01,6,1,6,0.07
2013-12-5,69.1,62.8,59.0,10.3,5.5,2.5,1,1,1,30.18,30.08,10,4,10,0.24
2013-12-6,77.9,68.4,63.7,53.4,14.6,-2.7,45,7,1,30.14,30.05,17,6,17,0.05
2013-12-7,68.4,57.0,48.6,34.1,13.3,-1.4,44,16,1,30.44,30.07,7,2,7,0.14
2013-12-8,48.6,39.9,35.6,21.4,-8.4,-15.8,37,6,1,30.45,30.30,9,2,9,0.17
2013-12-9,44.3,40.0,35.1,-8.9,-12.2,-16.1,1,1,1,30.32,30.12,6,1,6,0.46
2013-12-10,54.4,44.1,28.8,37.6,7.7,-32.9,59,25,1,30.39,29.97,18,2,18,0.15
2013-12-11,51.8,36.5,23.9,32.9,16.4,-12.8,58,45,16,30.49,30.34,8,2,8,0.00
2013-12-12,49.7,36.5,27.5,26.1,13.8,1.2,59,42,14,30.46,30.33,12,2,12,0.00
2013-12-13,54.2,37.5,24.1,31.1,20.8,-5.7,60,51,32,30.44,30.30,9,1,9,0.00
2013-12-14,45.0,40.3,38.3,23.4,1.9,-13.5,50,20,1,30.31,29.86,10,2,10,1.16
2013-12-15,50.0,43.0,34.9,34.0,12.7,-11.9,58,33,1,30.17,29.82,11,3,11,0.00
2013-12-16,58.3,42.6,27.0,37.3,21.4,-20.2,57,45,9,30.24,30.15,12,3,12,0.00
2013-12-17,62.1,48.8,34.6,39.9,29.8,12.4,57,48,36,30.20,30.01,20,6,20,0.00
2013-12-18,53.5,43.0,33.5,27.2,19.5,12.1,55,40,20,30.34,30.12,12,3,12,0.00
2013-12-19,62.3,43.5,27.5,32.6,23.9,15.8,62,48,25,30.38,30.27,12,2,12,0.00
2013-12-20,59.8,48.9,36.4,42.8,29.3,7.2,59,48,17,30.29,30.20,10,2,10,0.00
2013-12-21,51.8,50.2,49.1,13.5,3.9,-5.1,22,15,8,30.22,30.19,1,0,1,0.00
2013-12-22,71.1,63.9,59.9,11.8,6.3,3.2,1,1,1,30.14,30.04,19,5,19,1.35
2013-12-23,61.7,55.6,44.6,22.8,5.4,-1.9,39,9,1,30.23,30.05,8,3,8,0.96
2013-12-24,46.4,38.3,26.8,30.7,14.9,-11.8,61,41,12,30.45,30.20,13,2,13,0.00
2013-12-25,41.4,31.1,20.5,20.4,15.5,8.7,62,53,38,30.56,30.41,6,1,6,0.00
2013-12-26,54.0,37.9,26.6,32.0,21.6,7.8,59,52,37,30.41,30.27,5,1,5,0.00
2013-12-27,52.0,37.5,28.3,30.2,19.5,2.8,58,49,33,30.50,30.37,4,1,4,0.00
2013-12-28,52.4,39.4,28.1,35.7,14.8,-12.2,57,39,1,30.44,30.16,6,1,6,0.20
2013-12-29,55.4,46.1,39.1,0.3,-7.3,-13.0,12,2,1,30.16,29.86,12,3,12,1.19
2013-12-30,55.4,44.5,34.2,35.9,1.0,-16.9,49,14,1,30.15,29.99,6,1,6,0.00
2013-12-31,51.1,41.0,32.9,31.2,18.5,-11.6,59,43,5,30.38,30.13,9,1,9,0.00
2014-1-1,51.1,38.9,30.4,34.2,24.0,14.7,59,55,38,30.40,30.15,6,1,6,0.00
2014-1-2,46.1,42.1,29.9,27.6,3.9,-10.8,60,22,1,30.16,29.68,14,3,14,0.15